Total_Precipitation_Accumulation
0.95 0.93 0.92 0.91 0.83 0.77 0.74 0.68 0.59 0.52 0.48 0.46 0.45 0.45 0.46 0.50 0.53 0.56 0.57 0.59 0.65 0.64 0.62 0.60 0.57 0.56 0.58 0.61 0.67 0.72 0.79 0.87 0.98 0.91 0.77 0.73 0.76 0.80 0.84 0.76 0.75 0.71 0.65
0.76 0.81 0.80 0.73 0.68 0.65 0.61 0.57 0.53 0.47 0.44 0.45 0.46 0.44 0.41 0.40 0.43 0.49 0.53 0.55 0.61 0.62 0.61 0.61 0.56 0.54 0.57 0.57 0.59 0.62 0.70 0.81 0.94 0.98 0.86 0.75 0.72 0.71 0.71 0.68 0.58 0.54 0.55
0.55 0.54 0.58 0.56 0.54 0.52 0.47 0.45 0.42 0.41 0.40 0.38 0.38 0.38 0.37 0.37 0.37 0.37 0.40 0.43 0.48 0.54 0.56 0.61 0.61 0.58 0.56 0.56 0.58 0.61 0.69 0.80 0.93 0.96 0.88 0.79 0.75 0.73 0.79 0.75 0.65 0.69 0.59
0.45 0.43 0.47 0.48 0.46 0.46 0.44 0.41 0.37 0.35 0.35 0.32 0.29 0.27 0.28 0.28 0.27 0.26 0.26 0.29 0.33 0.37 0.42 0.54 0.59 0.59 0.57 0.60 0.63 0.65 0.71 0.81 0.86 0.89 0.83 0.75 0.74 0.75 0.82 0.88 0.84 0.77 0.67
0.45 0.45 0.47 0.44 0.42 0.43 0.45 0.41 0.37 0.34 0.30 0.28 0.25 0.21 0.20 0.21 0.21 0.21 0.21 0.21 0.27 0.30 0.33 0.41 0.48 0.51 0.53 0.54 0.56 0.62 0.71 0.82 0.87 0.90 0.83 0.76 0.72 0.81 0.88 0.86 0.83 0.80 0.68
0.45 0.49 0.50 0.48 0.48 0.47 0.45 0.44 0.41 0.36 0.32 0.25 0.21 0.18 0.17 0.16 0.18 0.18 0.19 0.23 0.29 0.33 0.36 0.38 0.38 0.40 0.40 0.38 0.44 0.51 0.63 0.75 0.86 0.92 0.89 0.84 0.77 0.80 0.88 0.89 0.88 0.88 0.80
0.53 0.52 0.52 0.49 0.49 0.46 0.41 0.42 0.40 0.35 0.31 0.28 0.23 0.20 0.19 0.16 0.14 0.14 0.17 0.25 0.34 0.40 0.42 0.41 0.35 0.36 0.42 0.43 0.42 0.44 0.55 0.62 0.76 0.92 0.97 0.88 0.81 0.83 0.95 0.99 0.94 0.93 0.91
0.57 0.55 0.52 0.48 0.45 0.42 0.41 0.42 0.39 0.35 0.32 0.31 0.26 0.22 0.22 0.16 0.13 0.13 0.16 0.22 0.28 0.30 0.30 0.34 0.41 0.46 0.41 0.39 0.38 0.47 0.57 0.66 0.71 0.77 0.88 0.81 0.75 0.76 0.84 0.89 0.86 0.87 0.82
0.57 0.51 0.43 0.38 0.38 0.37 0.40 0.42 0.39 0.37 0.35 0.31 0.27 0.24 0.26 0.21 0.16 0.14 0.15 0.22 0.24 0.24 0.22 0.24 0.28 0.34 0.32 0.36 0.46 0.60 0.64 0.74 0.78 0.91 0.91 0.82 0.78 0.76 0.67 0.68 0.87 1.00 0.96
0.42 0.36 0.30 0.29 0.31 0.33 0.34 0.36 0.35 0.34 0.32 0.28 0.27 0.27 0.25 0.24 0.16 0.14 0.14 0.17 0.22 0.21 0.24 0.27 0.24 0.21 0.24 0.32 0.47 0.66 0.79 0.83 0.95 1.15 1.09 1.02 0.93 0.87 0.73 0.72 0.95 1.12 1.11
0.29 0.27 0.25 0.25 0.26 0.26 0.28 0.32 0.33 0.31 0.32 0.31 0.31 0.30 0.26 0.20 0.14 0.09 0.09 0.13 0.16 0.20 0.27 0.31 0.31 0.24 0.25 0.29 0.42 0.62 0.77 0.80 1.02 1.28 1.18 1.00 0.93 0.86 0.82 0.83 0.91 0.98 0.98
0.27 0.27 0.26 0.21 0.17 0.17 0.27 0.34 0.32 0.34 0.36 0.36 0.35 0.31 0.25 0.19 0.13 0.09 0.07 0.07 0.08 0.22 0.36 0.34 0.33 0.31 0.29 0.36 0.49 0.66 0.79 0.95 1.12 1.22 1.04 0.87 0.76 0.74 0.73 0.68 0.66 0.67 0.73
0.27 0.30 0.28 0.23 0.21 0.20 0.26 0.31 0.31 0.32 0.30 0.29 0.29 0.27 0.25 0.22 0.17 0.10 0.07 0.06 0.09 0.19 0.33 0.37 0.35 0.33 0.42 0.62 0.74 0.84 0.97 1.14 1.18 1.05 0.90 0.78 0.65 0.61 0.57 0.55 0.54 0.57 0.60
0.28 0.28 0.25 0.25 0.27 0.25 0.24 0.20 0.22 0.24 0.22 0.22 0.24 0.26 0.28 0.26 0.18 0.12 0.12 0.13 0.15 0.20 0.30 0.42 0.49 0.52 0.68 0.89 1.03 1.12 1.19 1.20 1.06 0.94 0.83 0.72 0.59 0.56 0.55 0.50 0.51 0.53 0.57
0.26 0.24 0.22 0.20 0.23 0.27 0.22 0.13 0.11 0.12 0.09 0.13 0.17 0.19 0.25 0.24 0.13 0.10 0.12 0.15 0.18 0.23 0.29 0.44 0.60 0.66 0.79 0.95 1.07 1.14 1.17 1.14 1.05 0.92 0.81 0.71 0.61 0.56 0.53 0.45 0.45 0.46 0.49
0.26 0.21 0.15 0.12 0.14 0.16 0.19 0.18 0.08 0.04 0.03 0.04 0.06 0.08 0.11 0.12 0.10 0.08 0.10 0.14 0.19 0.26 0.34 0.54 0.66 0.68 0.76 0.86 0.96 1.04 1.03 0.99 0.91 0.86 0.81 0.74 0.65 0.56 0.52 0.47 0.44 0.44 0.47
0.19 0.16 0.10 0.06 0.09 0.12 0.15 0.23 0.24 0.13 0.04 0.03 0.03 0.05 0.07 0.08 0.09 0.08 0.08 0.12 0.17 0.26 0.41 0.60 0.70 0.76 0.80 0.83 0.85 0.88 0.93 0.92 0.84 0.77 0.73 0.66 0.57 0.51 0.48 0.46 0.41 0.40 0.39
0.10 0.07 0.06 0.08 0.06 0.08 0.09 0.13 0.18 0.25 0.24 0.18 0.08 0.05 0.06 0.09 0.11 0.10 0.11 0.14 0.22 0.28 0.44 0.59 0.69 0.75 0.79 0.80 0.78 0.74 0.78 0.80 0.74 0.66 0.60 0.55 0.51 0.47 0.43 0.41 0.37 0.31 0.29
0.08 0.08 0.07 0.05 0.05 0.04 0.05 0.07 0.10 0.16 0.20 0.21 0.18 0.11 0.09 0.12 0.14 0.15 0.16 0.20 0.27 0.31 0.39 0.52 0.61 0.66 0.66 0.67 0.67 0.66 0.66 0.68 0.63 0.58 0.54 0.50 0.46 0.42 0.39 0.32 0.27 0.19 0.22
0.05 0.03 0.04 0.04 0.04 0.03 0.03 0.05 0.08 0.13 0.14 0.16 0.18 0.16 0.14 0.24 0.35 0.31 0.25 0.23 0.24 0.27 0.34 0.45 0.54 0.56 0.55 0.52 0.49 0.49 0.50 0.50 0.50 0.48 0.47 0.45 0.41 0.36 0.30 0.24 0.22 0.21 0.23
0.02 0.01 0.01 0.02 0.02 0.02 0.02 0.02 0.04 0.08 0.11 0.13 0.11 0.10 0.17 0.28 0.38 0.36 0.32 0.30 0.30 0.30 0.32 0.36 0.42 0.45 0.45 0.41 0.36 0.34 0.35 0.37 0.38 0.38 0.39 0.38 0.34 0.29 0.23 0.18 0.16 0.13 0.14
0.01 0.01 0.01 0.01 0.01 0.01 0.01 0.02 0.02 0.03 0.05 0.09 0.10 0.10 0.17 0.23 0.29 0.33 0.35 0.35 0.37 0.36 0.33 0.33 0.35 0.36 0.35 0.33 0.31 0.27 0.26 0.27 0.28 0.31 0.33 0.32 0.28 0.23 0.17 0.12 0.10 0.08 0.07
0.01 0.01 0.01 0.01 0.00 0.01 0.01 0.02 0.02 0.02 0.03 0.05 0.07 0.11 0.16 0.23 0.29 0.35 0.39 0.38 0.37 0.37 0.33 0.30 0.32 0.35 0.33 0.28 0.25 0.22 0.21 0.21 0.21 0.25 0.31 0.32 0.26 0.19 0.13 0.09 0.06 0.05 0.04
0.00 0.01 0.01 0.00 0.00 0.01 0.01 0.01 0.01 0.01 0.01 0.03 0.05 0.08 0.12 0.18 0.23 0.28 0.33 0.36 0.37 0.38 0.37 0.38 0.38 0.36 0.31 0.25 0.21 0.19 0.19 0.19 0.19 0.24 0.27 0.29 0.24 0.16 0.10 0.07 0.05 0.04 0.04
0.00 0.00 0.00 0.00 0.00 0.00 0.00 0.01 0.01 0.01 0.01 0.02 0.03 0.05 0.09 0.11 0.13 0.16 0.21 0.26 0.29 0.32 0.34 0.36 0.36 0.32 0.27 0.22 0.17 0.14 0.16 0.16 0.14 0.18 0.25 0.28 0.21 0.14 0.09 0.06 0.05 0.05 0.05
0.00 0.00 0.00 0.00 0.00 0.00 0.00 0.00 0.01 0.01 0.01 0.01 0.02 0.03 0.05 0.07 0.09 0.12 0.14 0.17 0.20 0.23 0.27 0.32 0.32 0.23 0.16 0.12 0.11 0.10 0.08 0.06 0.05 0.08 0.18 0.23 0.17 0.13 0.12 0.10 0.05 0.04 0.05